Weather in Voznesenka

Ukraine / Zaporizhia Region     46°52′07″N   35°27′19″E
temp.,
°C
wind,
m/s
gust,
m/s
humid.,
%
clouds,
%
prec.,
mm/h
press.,
hPa
HPBL,
m
2 march, tue
tue223:000n348644 0.0 102970
02:000nnw348323 0.0 103093
05:00−1nw23850 0.0 102955
08:00+1wnw35770 0.0 1030231
11:00+5w57570 0.0 10281059
14:00+6w795312 0.0 10261077
17:00+5wsw61062100 0.0 1023793
20:00+3wsw7147383 0.0 1022557
3 march, wed
wed323:00+3w7137974 0.0 1020580
02:00+2nw6117787 0.0 1020592
05:00+3nnw7118096 0.0 1020888
08:00+3nnw7107298 0.1 1024947
11:00+5nnw785925 0.0 10241092
14:00+7nnw794813 0.0 10251413
17:00+6nnw37510 0.0 1025403
20:00+3nw34630 0.0 102763
4 march, thu
thu423:00+2w22680 0.0 102722
02:00+1wsw23730 0.0 102631
05:000wsw34780 0.0 102470
08:00+3sw58650 0.0 1024331
11:00+8sw79550 0.0 10221150
14:00+9sw810510 0.0 10201248
17:00+8sw510622 0.0 1017576
20:00+5sw6137615 0.0 1017492
5 march, fri
fri523:00+4sw6148057 0.0 1016498
02:00+3sw6138429 0.0 1016493
05:00+3sw512890 0.0 1015389
08:00+5sw6118411 0.0 1015506
11:00+9ssw687065 0.0 1014639
14:00+10ssw796076 0.0 1013776
17:00+8s696897 0.0 1012326
20:00+7ssw5107970 0.0 1012275
6 march, sat
sat623:00+5sw410900 0.0 1012318
02:00+6sw389532 0.0 1012322
05:00+4wnw349799 0.0 1012103
08:00+5n478899 0.0 1014390
11:00+2n71093100 0.2 1015413
14:00+3n6982100 1.4 1016775
17:00+3nnw6950100 0.0 10181182
20:00+2nnw71156100 0.0 1021878